Regional Weather Roundup
Issued by NWS Kansas City/Pleasant Hill, MO

Home | Current Version | Previous Version | Text Only | Print | Product List | Glossary Off
Versions: 1 2 3 4 5 6 7 8 9 10 11 12 13 14 15 16 17 18 19 20 21 22 23 24 25 26 27

000
ASUS43 KEAX 222010
RWREAX

WEATHER ROUNDUP FOR EASTERN KANSAS AND NORTHWEST MISSOURI
NATIONAL WEATHER SERVICE KANSAS CITY/PLEASANT HILL MO
200 PM CST WED FEB 22 2017

KSZ040-057-103>105-MOZ028-029-037-043-222100-
...KANSAS CITY METROPOLITAN AREA...

CITY           SKY/WX    TMP DP  RH WIND       PRES   REMARKS
K.C. INTL      MOSUNNY   77  36  22 SW15G22   29.65F
K.C. DOWNTOWN  MOSUNNY   78  34  20 SW22      29.63F
LEES SUMMIT    PTSUNNY   77  39  25 SW20G29   29.67F
OLATHE - IXD   SUNNY     76  37  24 SW12G24   29.68F
OLATHE - OJC   MOSUNNY   74  37  26 S15G21    29.68F
LAWRENCE       SUNNY     78  35  21 SW17G23   29.65F

$$

MOZ001>008-011>017-020>025-030>033-038>040-044>046-053-054-222100-
...NORTHERN AND CENTRAL MISSOURI...

CITY           SKY/WX    TMP DP  RH WIND       PRES   REMARKS
ST. JOSEPH     SUNNY     74  37  26 W16       29.64F
WARRENSBURG    MOSUNNY   73  45  35 S20G25    29.68F
WHITEMAN AFB   PTSUNNY   75  48  39 SW23G29   29.67F
CLINTON        PTSUNNY   73  48  40 SW15      29.72F
SEDALIA        SUNNY     75  49  39 S17       29.71F
WARSAW         NOT AVBL
CHILLICOTHE      N/A     73  44  35 SW13G25   29.66S
KIRKSVILLE     SUNNY     74  47  38 S21G26    29.64F

$$

MOZ041-047>049-056>058-063>065-088>090-097-222100-
...EASTERN AND SOUTHERN MISSOURI...

CITY           SKY/WX    TMP DP  RH WIND       PRES   REMARKS
ST. LOUIS INTL MOSUNNY   70  56  61 SW8       29.75F
SPIRIT OF STL  MOSUNNY   68  58  70 W8        29.74F
COLUMBIA       CLOUDY    65  56  72 S14       29.73F
JEFFERSON CITY PTSUNNY   62  55  77 S13       29.74F
ROLLA          MOSUNNY   64  56  75 S10       29.76F
OSAGE BEACH    SUNNY     67  55  65 S10       29.75F
SPRINGFIELD    SUNNY     68  56  65 SE9       29.76F
BRANSON        MOSUNNY   70  55  60 S6        29.80F
JOPLIN         SUNNY     76  46  34 SW15      29.74F
WEST PLAINS    MOSUNNY   66  55  67 SW8       29.82F

$$

IAZ060-094-KSZ022-034>040-054-083-096-NEZ052-066-093-222100-
...KANSAS...SOUTHEAST NEBRASKA AND IOWA...

CITY           SKY/WX    TMP DP  RH WIND       PRES   REMARKS
TOPEKA         SUNNY     77  36  22 SW8       29.65F
MANHATTAN      SUNNY     77  37  23 VRB7      29.66F
EMPORIA        SUNNY     78  34  20 SW13G18   29.68F
CHANUTE        SUNNY     79  36  21 SW18G24   29.71F
WICHITA        MOSUNNY   73  44  35 SW10      29.70F
OMAHA          MOSUNNY   74  40  29 NW12G21   29.62F
LINCOLN        SUNNY     75  36  24 NW12      29.65F
FALLS CITY     SUNNY     76  35  22 NW10G20   29.63F
LAMONI         SUNNY     75  35  23 SW17      29.61F
DES MOINES     MOSUNNY   71  34  25 W20       29.59F

$$





USA.gov is the U.S. government's official web portal to all federal, state and local government web resources and services.